Location: Poughquag
(41.6090°N, 73.6820°W)
Time: 01:26:24
(UTC-05:00)

Vanguard 1 - All Passes

Search period start: 29 November 2023 00:00
Search period end: 09 December 2023 00:00
Orbit: 651 x 3828 km, 34.3° (Epoch: 27 November)

Date Brightness Start Highest point End Pass type
(mag) Time Alt. Az. Time Alt. Az. Time Alt. Az.
29 Nov - 01:48:49 10° W 02:06:54 34° SW 02:19:25 10° SSE visible
29 Nov - 16:36:22 10° S 16:49:11 30° SE 17:06:27 10° E visible
29 Nov - 18:53:59 10° SW 19:12:05 59° SSE 19:34:42 10° E visible
29 Nov - 21:16:21 10° WSW 21:38:25 71° S 21:59:33 10° ESE visible
29 Nov - 23:41:52 10° W 00:04:27 57° SSW 00:21:18 10° SE visible
30 Nov - 02:10:47 10° W 02:26:44 27° SW 02:38:19 10° S visible
30 Nov - 16:55:23 10° SSW 17:09:06 37° SE 17:28:17 10° E visible
30 Nov - 19:14:13 10° WSW 19:32:48 64° SSE 19:55:43 10° E visible
30 Nov - 21:37:09 10° W 21:59:25 70° S 22:20:13 10° ESE visible
01 Dec - 00:03:01 10° W 00:24:56 51° SSW 00:41:15 10° SE visible
01 Dec - 02:33:24 10° W 02:46:26 21° SW 02:56:30 10° SSW visible
01 Dec - 15:02:34 10° SSE 15:08:52 14° ESE 15:16:24 10° E daylight
01 Dec - 17:14:47 10° SSW 17:29:11 44° SE 17:49:46 10° E visible
01 Dec - 19:34:36 10° WSW 19:53:38 68° SSE 20:16:41 10° E visible
01 Dec - 21:58:01 10° W 22:20:23 67° SSW 22:40:46 10° ESE visible
02 Dec - 00:24:17 10° W 00:45:14 44° SW 01:00:57 10° SSE visible
02 Dec - 02:57:29 10° W 03:06:02 14° WSW 03:13:16 10° SSW visible
02 Dec - 15:19:24 10° SSE 15:28:25 20° SE 15:40:27 10° E daylight
02 Dec - 17:34:31 10° SW 17:49:26 51° SSE 18:11:05 10° E visible
02 Dec - 19:55:07 10° WSW 20:14:34 70° S 20:37:36 10° E visible
02 Dec - 22:18:55 10° W 22:41:13 63° SSW 23:01:10 10° ESE visible
03 Dec - 00:45:45 10° W 01:05:21 37° SW 01:20:19 10° SSE visible
03 Dec - 15:37:40 10° S 15:48:05 27° SE 16:03:02 10° E daylight
03 Dec - 17:54:29 10° SW 18:09:52 57° SSE 18:32:16 10° E visible
03 Dec - 20:15:43 10° WSW 20:35:33 71° S 20:58:28 10° ESE visible
03 Dec - 22:39:52 10° W 23:01:57 58° SSW 23:21:23 10° SE visible
04 Dec - 01:07:35 10° W 01:25:18 30° SW 01:39:14 10° S visible
04 Dec - 15:56:37 10° SSW 16:07:53 34° SE 16:24:57 10° E daylight
04 Dec - 18:14:39 10° WSW 18:30:29 63° SSE 18:53:24 10° E visible
04 Dec - 20:36:24 10° W 20:56:33 70° S 21:19:13 10° ESE visible
04 Dec - 23:00:54 10° W 23:22:32 52° SSW 23:41:23 10° SE visible
05 Dec - 01:29:59 10° W 01:45:07 23° SW 01:57:30 10° S night (unlit)
05 Dec - 14:06:32 10° SE 14:08:33 10° ESE 14:10:42 10° ESE daylight
05 Dec - 16:16:00 10° SSW 16:27:51 41° SE 16:46:32 10° E daylight
05 Dec - 18:34:57 10° WSW 18:51:13 67° SSE 19:14:28 10° E visible
05 Dec - 20:57:07 10° W 21:17:30 67° SSW 21:39:52 10° ESE visible
05 Dec - 23:22:02 10° W 23:42:57 45° SW 00:01:06 10° SSE visible
06 Dec - 01:53:34 10° W 02:04:51 16° SW 02:14:35 10° SSW night (unlit)
06 Dec - 14:21:30 10° SSE 14:28:03 16° SE 14:36:38 10° E daylight
06 Dec - 16:35:41 10° SW 16:48:01 48° SSE 17:07:54 10° E visible
06 Dec - 18:55:22 10° WSW 19:12:04 69° S 19:35:30 10° E visible
06 Dec - 21:17:54 10° W 21:38:23 63° SSW 22:00:21 10° ESE visible
06 Dec - 23:43:23 10° W 00:03:12 38° SW 00:20:28 10° SSE visible
07 Dec - 02:21:36 10° WSW 02:24:30 10° WSW 02:27:18 10° SW night (unlit)
07 Dec - 14:39:31 10° S 14:47:39 23° SE 14:59:28 10° E daylight
07 Dec - 16:55:36 10° SW 17:08:20 55° SSE 17:29:10 10° E visible
07 Dec - 19:15:53 10° WSW 19:32:58 70° S 19:56:28 10° ESE visible
07 Dec - 21:38:43 10° W 21:59:11 58° SSW 22:20:38 10° SE visible
08 Dec - 00:05:03 10° W 00:23:19 31° SW 00:39:24 10° S visible
08 Dec - 14:58:22 10° SSW 15:07:23 30° SE 15:21:29 10° E daylight
08 Dec - 17:15:42 10° WSW 17:28:50 61° SSE 17:50:22 10° E visible
08 Dec - 19:36:27 10° W 19:53:54 69° S 20:17:20 10° ESE visible
08 Dec - 21:59:38 10° W 22:19:50 52° SSW 22:40:40 10° SE visible
